Location: Newark
(37.8333°N, 119.5000°W)
Time: 11:09:41
(UTC+00:00)

Tiros 1 despin weight - Pass Details

Date: 27 August 2019
Orbit: 594 x 642 km, 48.2° (Epoch: 19 September)

Event Time Altitude Azimuth Distance (km) Brightness Sun altitude
Rises 06:21:24 0° 258° (WSW) 2,823 - -36.8°
Reaches altitude 10° 06:23:47 10° 266° (W) 1,926 - -37.0°
Maximum altitude 06:27:57 40° 336° (NNW) 891 - -37.4°
Drops below altitude 10° 06:32:09 10° 47° (NE) 1,949 - -37.8°
Sets 06:34:35 0° 55° (NE) 2,862 - -38.1°
